{"data":{"norad_id":45162,"intl_designator":"2020-008AH","name":"ONEWEB-0059","alt_names":[],"object_type":"PAYLOAD","status":"ACTIVE","operator":null,"country":"UK","launch_date":"2020-02-06","launch_site_code":"TYMSC","launch_vehicle":null,"mission":null,"orbit_class":"UNKNOWN","rcs_meters":null,"size_class":null,"mass_kg":null,"dimensions":null,"purposes":["comms"],"wikipedia_slug":null,"has_3d_model":false,"image_url":null,"decayed_at":null,"tle_current":{"epoch":"2026-09-20T01:01:47.215776Z","epoch_age_seconds":53824,"freshness":"FRESH","line1":"1 45162U 20008AH  26263.04290759 -.00000611  00000+0 -17870-2 0  9997","line2":"2 45162  87.8910  17.3927 0002136 105.1231 255.0132 13.10372422320746","mean_motion":13.10372422,"eccentricity":0.0002136,"inclination_deg":87.891,"raan_deg":17.3927,"arg_perigee_deg":105.1231,"mean_anomaly_deg":255.0132,"bstar":-0.001787,"rev_number":32074,"period_min":109.89242262914,"perigee_km":1220.0953488763,"apogee_km":1223.342007222,"semimajor_km":7599.8556780492,"source":"CELESTRAK","updated_at":"2026-09-20T09:00:44.551114Z"}}}